Location: Katowice
(50.2611°N, 19.0242°E)
Time: 07:07:02
(UTC+02:00)

Tiros 1 - Pass Details

Date: 30 August 2019
Orbit: 631 x 664 km, 48.4° (Epoch: 18 September)

Event Time Altitude Azimuth Distance (km) Brightness Sun altitude
Rises 22:24:26 0° 235° (SW) 2,912 10.6 -23.5°
Reaches altitude 10° 22:26:49 10° 229° (SW) 2,005 9.6 -23.7°
Enters shadow 22:27:11 12° 227° (SW) 1,875 9.5 -23.8°
